Location: México DF
(19.4326°N, 99.1332°W)
Time: 12:07:55
(UTC+00:00)

ISS - Pass Details

Date: 07 April 2024
Orbit: 412 x 418 km, 51.6° (Epoch: 22 April)

Event Time Altitude Azimuth Distance (km) Brightness Sun altitude
Rises 01:53:28 0° 295° (WNW) 2,355 1.7 -15.1°
Reaches altitude 10° 01:56:20 10° 268° (W) 1,492 0.3 -15.7°
Maximum altitude 01:58:07 14° 236° (SW) 1,284 -0.7 -16.1°
Drops below altitude 10° 01:59:55 10° 203° (SSW) 1,493 -0.9 -16.5°
Enters shadow 02:02:06 - 181° (S) 2,119 -0.3 -17.0°
